PulseSat

PulseSat

GPS BIIF-12

Last updated on Dec. 10, 2018, 12:08 a.m. UTC

1 41328U 16007A   18343.19327714  .00000050  00000-0  00000+0 0  9999
2 41328  54.8248 198.5299 0024789 214.1608 145.7629  2.00556548 20793
UTC
Height (km)
Latitude
Longitude
Inclination
Orbital Period

Next 30 passes for location: Hong Kong

Rise time Rise Azimuth (degrees) Set time Set Azimuth (degrees) Duration Max altitude (degrees)

No matching passes for this satellites

PulseSat

PulseSat is the new satellites software and hardware trackering solution by Pulsely.
Satellite Two Line Element Set source: US Air Force Space Command

Download PulseSat for iOS
© 2017 Pulsely Limited